Weather History for Indianapolis, IN

Change the Weather History Date:

Tuesday, July 23, 2013

  Actual Average (KEYE) Record (KEYE)
Temperature  
Mean Temperature 74 °F 75 °F  
Max Temperature 85 °F 84 °F 99 °F (2012)
Min Temperature 63 °F 66 °F 55 °F (2000)
Degree Days  
Heating Degree Days 0 0  
Month to date heating degree days 0  
Since 1 June heating degree days 14  
Since 1 July heating degree days 0  
Cooling Degree Days 10 10  
Month to date cooling degree days 240  
Year to date cooling degree days 558  
Since 1 June cooling degree days 474  
Growing Degree Days 24 (Base 50)    
Moisture  
Dew Point 65 °F    
Average Humidity 72    
Maximum Humidity 90    
Minimum Humidity 47    
Precipitation  
Precipitation 0.00 in 0.13 in 0.75 in (1999)
Month to date precipitation 3.46  
Year to date precipitation 24.66  
Sea Level Pressure  
Sea Level Pressure 29.83 in    
Wind  
Wind Speed 5 mph (West)    
Max Wind Speed 17 mph    
Max Gust Speed 22 mph    
Visibility 9 miles    
Events      
T = Trace of Precipitation, MM = Missing Value Source: NWS Daily Summary

Daily Weather History Graph

Daily Weather History Graph

Search for Another Location

Airport:

Trip Planner

Search our weather history database for the weather conditions in past years. The results will help you decide how hot, cold, wet, or windy it might be!

Date:

Astronomy

Jul. 23, 2013 Rise Set
Actual Time 6:35 AM EDT 9:07 PM EDT
Civil Twilight 6:04 AM EDT 9:38 PM EDT
Nautical Twilight 5:25 AM EDT 10:16 PM EDT
Astronomical Twilight 4:42 AM EDT 10:59 PM EDT
Moon 9:34 PM EDT (7/23) 7:43 AM EDT (7/23)
Length of Visible Light 15h 33m
Length of Day
14h 31m
Full, 99% of the Moon is Illuminated
Jul 23
Full
Jul 29
Last Quarter
Aug 6
New
Aug 14
First Quarter
Aug 20
Full

Hourly Weather History & Observations

Time (EDT) Temp. Heat Index Dew Point Humidity Pressure Visibility Wind Dir Wind Speed Gust Speed Precip Events Conditions
12:15 AM 67.5 °F - 64.0 °F 89% 29.85 in 5.0 mi Calm Calm - N/A   Clear
12:35 AM 67.6 °F - 64.4 °F 89% 29.86 in 4.0 mi Calm Calm - N/A   Clear
12:55 AM 67.3 °F - 64.0 °F 89% 29.86 in 4.0 mi Calm Calm - N/A   Clear
1:15 AM 67.1 °F - 63.9 °F 89% 29.87 in 4.0 mi Calm Calm - N/A   Clear
1:35 AM 66.6 °F - 63.5 °F 90% 29.87 in 3.0 mi Calm Calm - N/A   Clear
1:55 AM 67.5 °F - 64.4 °F 90% 29.86 in 5.0 mi WSW 4.6 mph - N/A   Clear
2:15 AM 68.5 °F - 65.5 °F 90% 29.86 in 7.0 mi SW 3.5 mph - N/A   Clear
2:35 AM 68.2 °F - 64.9 °F 89% 29.86 in 7.0 mi SW 3.5 mph - N/A   Clear
2:55 AM 68.4 °F - 65.1 °F 89% 29.85 in 10.0 mi SW 3.5 mph - N/A   Clear
3:15 AM 68.4 °F - 65.1 °F 89% 29.84 in 7.0 mi SW 3.5 mph - N/A   Clear
3:35 AM 68.5 °F - 65.3 °F 89% 29.84 in 10.0 mi SW 3.5 mph - N/A   Clear
3:55 AM 68.9 °F - 65.3 °F 88% 29.83 in 10.0 mi SW 3.5 mph - N/A   Clear
4:15 AM 69.1 °F - 65.5 °F 88% 29.83 in 10.0 mi SSW 3.5 mph - N/A   Clear
4:35 AM 69.8 °F - 66.2 °F 88% 29.83 in 10.0 mi West 3.5 mph - N/A   Mostly Cloudy
4:55 AM 70.0 °F - 66.2 °F 88% 29.81 in 10.0 mi Calm Calm - N/A   Mostly Cloudy
5:15 AM 70.0 °F - 66.2 °F 88% 29.81 in 7.0 mi SSW 4.6 mph - N/A   Scattered Clouds
5:35 AM 70.0 °F - 66.2 °F 88% 29.79 in 7.0 mi SE 3.5 mph - N/A   Clear
5:55 AM 69.8 °F - 66.2 °F 88% 29.80 in 7.0 mi South 3.5 mph - N/A   Clear
6:15 AM 70.7 °F - 66.6 °F 87% 29.80 in 10.0 mi SSW 6.9 mph - N/A   Clear
6:35 AM 70.9 °F - 66.6 °F 86% 29.80 in 10.0 mi SW 10.4 mph - N/A   Clear
6:55 AM 71.1 °F - 66.6 °F 86% 29.80 in 10.0 mi SW 6.9 mph - N/A   Clear
7:15 AM 70.9 °F - 66.6 °F 86% 29.80 in 7.0 mi SSW 3.5 mph - N/A   Clear
7:35 AM 71.6 °F - 67.1 °F 86% 29.79 in 7.0 mi South 4.6 mph - N/A   Clear
7:55 AM 72.5 °F - 67.6 °F 85% 29.81 in 7.0 mi Calm Calm - N/A   Clear
8:15 AM 73.4 °F - 68.2 °F 84% 29.81 in 7.0 mi SW 4.6 mph - N/A   Clear
8:35 AM 74.5 °F - 68.5 °F 82% 29.81 in 10.0 mi SW 5.8 mph - N/A   Clear
8:55 AM 76.1 °F - 69.1 °F 79% 29.81 in 10.0 mi West 6.9 mph - N/A   Clear
9:15 AM 77.0 °F - 69.3 °F 77% 29.82 in 10.0 mi WSW 6.9 mph - N/A   Clear
9:35 AM 77.7 °F - 68.7 °F 74% 29.82 in 10.0 mi WSW 6.9 mph - N/A   Clear
9:55 AM 79.3 °F - 69.6 °F 72% 29.82 in 10.0 mi WSW 8.1 mph - N/A   Clear
10:15 AM 80.1 °F 82.9 °F 69.3 °F 69% 29.82 in 10.0 mi West 8.1 mph - N/A   Clear
10:35 AM 81.1 °F 84.9 °F 70.3 °F 70% 29.82 in 10.0 mi West 11.5 mph 16.1 mph N/A   Clear
10:55 AM 82.6 °F 87.1 °F 71.2 °F 68% 29.83 in 10.0 mi West 11.5 mph 16.1 mph N/A   Clear
11:15 AM 83.1 °F 87.6 °F 70.5 °F 66% 29.83 in 10.0 mi West 11.5 mph - N/A   Clear
11:35 AM 83.1 °F 86.3 °F 68.4 °F 61% 29.83 in 10.0 mi West 9.2 mph - N/A   Clear
11:55 AM 84.0 °F 87.8 °F 69.4 °F 61% 29.83 in 10.0 mi West 12.7 mph 19.6 mph N/A   Clear
12:15 PM 84.0 °F 87.3 °F 68.4 °F 59% 29.84 in 10.0 mi West 13.8 mph 19.6 mph N/A   Scattered Clouds
12:35 PM 84.6 °F 87.6 °F 68.0 °F 57% 29.84 in 10.0 mi West 12.7 mph 17.3 mph N/A   Scattered Clouds
12:55 PM 84.2 °F 86.8 °F 66.7 °F 56% 29.84 in 10.0 mi WNW 9.2 mph 16.1 mph N/A   Scattered Clouds
1:15 PM 84.2 °F 86.3 °F 66.0 °F 54% 29.83 in 10.0 mi West 10.4 mph 16.1 mph N/A   Scattered Clouds
1:35 PM 84.6 °F 86.8 °F 66.0 °F 54% 29.82 in 10.0 mi WNW 11.5 mph - N/A   Clear
1:55 PM 85.1 °F 87.9 °F 67.1 °F 55% 29.82 in 10.0 mi West 6.9 mph 18.4 mph N/A   Clear
2:15 PM 85.3 °F 87.4 °F 65.7 °F 52% 29.81 in 10.0 mi West 12.7 mph 17.3 mph N/A   Scattered Clouds
2:35 PM 85.5 °F 87.9 °F 66.7 °F 53% 29.80 in 10.0 mi WNW 10.4 mph 17.3 mph N/A   Clear
2:55 PM 85.6 °F 86.6 °F 63.3 °F 47% 29.79 in 10.0 mi WNW 12.7 mph 19.6 mph N/A   Clear
3:15 PM 85.3 °F 86.6 °F 64.2 °F 49% 29.79 in 10.0 mi WNW 11.5 mph 19.6 mph N/A   Clear
3:35 PM 85.1 °F 86.9 °F 64.9 °F 51% 29.80 in 10.0 mi WNW 10.4 mph 17.3 mph N/A   Clear
4:15 PM 83.5 °F 85.3 °F 65.1 °F 54% 29.80 in 10.0 mi West 10.4 mph 16.1 mph N/A   Clear
4:35 PM 85.1 °F 87.9 °F 67.3 °F 55% 29.80 in 10.0 mi WNW 8.1 mph - N/A   Scattered Clouds
4:55 PM 84.4 °F 86.3 °F 65.5 °F 53% 29.80 in 10.0 mi WNW 11.5 mph 17.3 mph N/A   Scattered Clouds
5:15 PM 83.1 °F 85.0 °F 65.5 °F 55% 29.79 in 10.0 mi WNW 9.2 mph - N/A   Scattered Clouds
5:35 PM 82.9 °F 84.8 °F 65.5 °F 55% 29.79 in 10.0 mi West 12.7 mph 19.6 mph N/A   Scattered Clouds
5:55 PM 82.0 °F 83.8 °F 64.9 °F 56% 29.80 in 10.0 mi NW 12.7 mph 18.4 mph N/A   Mostly Cloudy
6:15 PM 81.9 °F 83.4 °F 64.2 °F 55% 29.80 in 10.0 mi NW 11.5 mph 16.1 mph N/A   Mostly Cloudy
6:35 PM 81.5 °F 83.1 °F 64.2 °F 56% 29.80 in 10.0 mi NNW 12.7 mph 18.4 mph N/A   Scattered Clouds
6:55 PM 78.4 °F - 66.0 °F 66% 29.81 in 10.0 mi North 17.3 mph 21.9 mph N/A   Scattered Clouds
7:15 PM 76.5 °F - 64.6 °F 67% 29.81 in 10.0 mi North 13.8 mph 19.6 mph N/A   Scattered Clouds
7:35 PM 75.2 °F - 63.7 °F 67% 29.81 in 10.0 mi North 9.2 mph 19.6 mph N/A   Clear
7:55 PM 74.3 °F - 62.8 °F 67% 29.83 in 10.0 mi North 9.2 mph 17.3 mph N/A   Clear
8:15 PM 73.0 °F - 60.8 °F 65% 29.83 in 10.0 mi North 11.5 mph - N/A   Clear
8:35 PM 72.3 °F - 60.1 °F 65% 29.84 in 10.0 mi North 12.7 mph 17.3 mph N/A   Mostly Cloudy
8:55 PM 71.4 °F - 58.5 °F 64% 29.85 in 10.0 mi North 9.2 mph - N/A   Mostly Cloudy
9:15 PM 70.7 °F - 58.1 °F 64% 29.86 in 10.0 mi North 9.2 mph 16.1 mph N/A   Overcast
9:35 PM 69.4 °F - 57.7 °F 66% 29.87 in 10.0 mi North 9.2 mph 16.1 mph N/A   Mostly Cloudy
9:55 PM 68.0 °F - 57.2 °F 68% 29.88 in 10.0 mi North 8.1 mph - N/A   Scattered Clouds
10:15 PM 67.3 °F - 56.7 °F 69% 29.89 in 10.0 mi North 8.1 mph - N/A   Mostly Cloudy
10:35 PM 66.2 °F - 56.8 °F 72% 29.90 in 10.0 mi North 6.9 mph - N/A   Scattered Clouds
10:55 PM 65.8 °F - 56.3 °F 71% 29.91 in 10.0 mi North 6.9 mph - N/A   Scattered Clouds
11:15 PM 64.6 °F - 56.3 °F 74% 29.92 in 10.0 mi North 6.9 mph - N/A   Clear
11:35 PM 64.6 °F - 56.3 °F 74% 29.92 in 10.0 mi NNW 4.6 mph - N/A   Clear
11:55 PM 63.9 °F - 55.8 °F 75% 29.92 in 10.0 mi NNW 4.6 mph - N/A   Clear